Вернуться в каталог

SL-6 R/B(2)

АктивенHEO
NORAD 21429·ROCKET BODY·🇷🇺 Russia

Запущен Jun 18, 1991 с Plesetsk Cosmodrome

Loading…

Ближайшие Пролёты (ближайшие 24 часа)

TLE

СвежийSource: Space-Track

Эпоха: Sep 9, 2026, 00:55 UTC

1 21429U 91043D   26252.03820321  .00000966  00000-0  00000-0 0  9992
2 21429  63.6051 239.5059 6810845 261.7109  22.0901  1.96664050253014

Отслеживайте SL-6 R/B(2) в реальном времени с AllMySat

Download on the App Store